Location: Borz?cin
(51.1714°N, 19.6030°E)
Time: 07:07:58
(UTC+00:00)

USA 59 Rocket - Pass Details

Date: 19 May 2025
Orbit: 373 x 1696 km, 63.3° (Epoch: 16 June)

Event Time Altitude Azimuth Distance (km) Brightness Sun altitude
Exits shadow 22:10:18 46° 248° (WSW) 548 -0.4 -18.6°
Maximum altitude 22:11:03 70° 316° (NW) 420 -0.7 -18.6°
Drops below altitude 10° 22:14:00 10° 41° (NE) 1,391 2.5 -18.7°
Sets 22:15:58 0° 44° (NE) 2,257 3.6 -18.7°
